Location: Memmingen
(47.9830°N, 10.1733°E)
Time: 23:52:16
(UTC+01:00)

OTV 5 (USA 277) - Visible Passes

Search period start: 17 November 2017 00:00
Search period end: 27 November 2017 00:00
Orbit: 404 x 417 km, 43.0° (Epoch: 07 September)

Date Brightness Start Highest point End Pass type
(mag) Time Alt. Az. Time Alt. Az. Time Alt. Az.
17 Nov ? 05:42:03 25° SSW 05:42:31 26° SSW 05:45:20 10° SE visible
18 Nov ? 04:53:27 17° SE 04:53:27 17° SE 04:54:31 10° SE visible
18 Nov ? 06:26:30 10° WSW 06:28:17 14° SSW 06:30:03 10° S visible
19 Nov ? 05:37:38 18° SSW 05:37:38 18° SSW 05:39:43 10° SSE visible
20 Nov ? 04:49:06 10° SE 04:49:06 10° SE 04:49:08 10° SE visible
